Location: Boullarre
(49.1305°N, 3.0047°E)
Time: 19:27:35
(UTC+00:00)

Cosmos 44 Rocket - Pass Details

Date: 03 February 2023
Orbit: 646 x 741 km, 65.1° (Epoch: 26 March)

Event Time Altitude Azimuth Distance (km) Brightness Sun altitude
Rises 19:44:19 0° 223° (SW) 2,958 7.0 -29.0°
Reaches altitude 10° 19:46:36 10° 225° (SW) 2,058 6.1 -29.4°
Enters shadow 19:49:20 35° 233° (SW) 1,057 4.5 -29.8°
